Flag for Lithuania Weather past 2 weeks in Kaunas, Lithuania

Now
59 °F

Light rain. Cloudy.


Feels Like: 59 °F
Forecast: 48 / 61 °F
Wind: 5 mph from East

Location: Kaunas

Current Time: May 26, 2015 at 11:04:24 AM

Latest Report: May 26, 2015 at 10:20 AM


Visibility: N/A

Pressure: 29.80 "Hg

Humidity: 88%

Dew point: 55 °F

Location of KaunasLocation

Historic Weather in Kaunas — Graph

°F

Kaunas temperature yesterday

Maximum temperature yesterday: 70 °F (at 5:20 PM)
Minimum temperature yesterday: 37 °F (at 5:20 AM)
Average temperature yesterday: 58 °F

Past Weeks' High & Low Weather Summary

 TemperatureHumidityPressure
High70 °F (May 19, 4:20 PM)94% (May 13, 6:20 AM)30.30 "Hg (May 13, 6:20 AM)
Low34 °F (May 19, 4:20 AM)28% (May 25, 7:50 PM)29.68 "Hg (May 14, 4:50 PM)
Average52 °F68%29.95 "Hg
* Reported May 11 9:20 AM — May 26 9:50 AM, Kaunas, Weather by CustomWeather, © 2015

Note: Actual official high and low records may vary slightly from our data, if they occured in-between our weather recording intervals... More about our weather records

Advertising

Kaunas weather history for previous 24 hours

 ConditionsComfort  
Time TempWeatherWind HumidityBarometerVisibility
9:50 AM
Tue, May 26
57 °FLight rain. Overcast.5 mph88%29.80 "HgN/A
9:20 AM57 °FMore clouds than sun.3 mph88%29.80 "HgN/A
8:50 AM57 °FPassing clouds.3 mph88%29.80 "HgN/A
8:20 AM57 °FSunny.2 mph88%29.80 "Hg10 mi
7:50 AM55 °FPassing clouds.5 mph94%29.80 "HgN/A
7:20 AM55 °FLight rain. Clear.3 mph94%29.80 "HgN/A
6:50 AM55 °FLight rain. Clear.5 mph88%29.80 "HgN/A
6:20 AM55 °FLight rain. Clear.8 mph88%29.83 "HgN/A
5:50 AM55 °FLight rain. Clear.7 mph88%29.83 "Hg6 mi
5:20 AM57 °FLight rain. Clear.7 mph77%29.83 "HgN/A
4:50 AM57 °FClear.5 mph77%29.83 "Hg10 mi
4:20 AM55 °FClear.3 mph82%29.83 "Hg10 mi
3:50 AM55 °FClear.No wind82%29.83 "Hg10 mi
3:20 AM55 °FMostly cloudy.6 mph82%29.86 "HgN/A
2:50 AM55 °FMostly cloudy.5 mph82%29.86 "HgN/A
2:20 AM55 °FOvercast.No wind82%29.86 "HgN/A
1:50 AM55 °FMostly cloudy.No wind77%29.86 "HgN/A
1:20 AM55 °FSprinkles. Mostly cloudy.5 mph82%29.86 "HgN/A
12:50 AM57 °FSprinkles. Mostly cloudy.3 mph72%29.89 "HgN/A
12:20 AM59 °FLight rain. Mostly cloudy.5 mph68%29.89 "HgN/A
11:20 PM
Mon, May 25
59 °FClear.3 mph59%29.89 "Hg10 mi
10:50 PM61 °FClear.3 mph52%29.89 "Hg10 mi
10:20 PM61 °FSunny.2 mph52%29.89 "Hg10 mi
9:50 PM61 °FSunny.No wind55%29.89 "Hg10 mi
9:20 PM63 °FSunny.2 mph56%29.89 "Hg10 mi
8:50 PM64 °FSunny.No wind46%29.89 "Hg10 mi
8:20 PM68 °FSunny.No wind33%29.89 "Hg10 mi
7:50 PM68 °FSunny.No wind28%29.89 "Hg10 mi
7:20 PM70 °FSunny.1 mph29%29.89 "Hg10 mi
6:50 PM68 °FPassing clouds.3 mph30%29.92 "HgN/A
6:20 PM70 °FSunny.1 mph29%29.92 "Hg10 mi
5:50 PM70 °FSunny.2 mph29%29.92 "Hg10 mi
5:20 PM70 °FPassing clouds.6 mph31%29.92 "HgN/A
4:50 PM68 °FPassing clouds.7 mph30%29.95 "HgN/A
4:20 PM68 °FPassing clouds.7 mph33%29.95 "HgN/A
3:50 PM68 °FPassing clouds.6 mph30%29.95 "HgN/A
3:20 PM66 °FSunny.5 mph32%29.98 "Hg10 mi
2:50 PM68 °FPassing clouds.8 mph35%29.98 "HgN/A
2:20 PM68 °FPassing clouds.6 mph30%29.98 "HgN/A
1:50 PM68 °FPassing clouds.7 mph33%29.98 "HgN/A
1:20 PM68 °FPassing clouds.7 mph30%30.01 "HgN/A
12:50 PM66 °FSunny.6 mph30%30.01 "Hg10 mi
12:20 PM66 °FPassing clouds.7 mph32%30.01 "HgN/A
11:50 AM66 °FPassing clouds.8 mph32%30.01 "HgN/A
11:20 AM64 °FPassing clouds.6 mph37%30.01 "HgN/A
Weather by CustomWeather, © 2015

See weather overviewHow to use our weather pages